[[{"header":{"parameterUnit":"m.s-1","parameterCategory":1,"la1":30.2991,"la2":30.254,"lo1":-89.0895,"lo2":-89.0444,"dy":0.0017,"dx":0.0017,"nx":28,"ny":28,"refTime":"2024-04-24T03:00:00:Z","depth":0,"parameterNumber":2,"parameterNumberName":"U-component_of_WINDS"},"data":[0,0,0,0,0,0,0,0,0,0,0,0,0,0,0,0,0,0,0,0,0,0,0,0,0,0,0,0,0,0,0,0,0,0,0,0,0,0,0,0,0,0,0,0,0,0,0,0,0,0,0,0,0,0,0,0,0,0,0.4729,0.4728,0,0.469,0.469,0.469,0.4667,0.4667,0.4667,0.4667,0.4627,0.4626,0.4625,0,0,0,0,0,0,0,0,0,0,0,0,0,0.4781,0.478,0.4729,0.4728,0.4728,0.4691,0.469,0.4689,0.4667,0.4667,0.4667,0.4667,0.4628,0.4626,0.4625,0,0,0,0,0,0,0,0,0,0,0,0,0,0.4752,0.478,0.4729,0.4712,0.4711,0.4691,0.469,0.4689,0.4668,0.4667,0.4667,0.4667,0.4628,0.4626,0.4625,0.4618,0,0,0.462,0.462,0,0,0,0,0,0,0,0,0.4754,0.475,0.4715,0.4713,0.4711,0.4684,0.4694,0.4665,0.4668,0.4684,0.4667,0.4667,0.4646,0.4643,0.4636,0.4616,0.4615,0.462,0.4619,0.4619,0.4618,0,0,0,0,0,0,0,0.4756,0.4751,0.4714,0.4715,0.4712,0.4706,0.4702,0.4688,0.4666,0.4682,0.4681,0.4677,0.4645,0.4638,0.4635,0.4614,0.462,0.4619,0.4618,0.4618,0.4585,0.4585,0,0,0,0,0,0,0.476,0.4753,0.4715,0.4712,0.4733,0.4705,0.4701,0.4693,0.4666,0.4662,0.4677,0.4676,0.464,0.4637,0.4634,0.4622,0.4619,0.4617,0.4617,0.4585,0.4585,0.4585,0,0,0,0,0,0,0.4762,0.4757,0.4716,0.4732,0.4727,0.4705,0.4696,0.4692,0.4685,0.4662,0.4658,0.4673,0.464,0.4636,0.4622,0.4621,0.4617,0.4615,0.4585,0.4585,0.4585,0.4601,0,0,0,0,0,0,0.4763,0.4758,0.4756,0.4733,0.4726,0.4706,0.4696,0.4691,0.4682,0.468,0.4658,0.4654,0.464,0.4624,0.462,0.4619,0.4614,0.4585,0.4585,0.4585,0.4601,0.4602,0.4603,0,0,0,0,0,0.4765,0.4762,0.4756,0.4751,0.4723,0.4706,0.4702,0.4686,0.4682,0.4679,0.4664,0.4654,0.4622,0.4623,0.4618,0.4616,0.4585,0.4585,0.4585,0.46,0.4602,0.4603,0,0,0,0,0,0,0.4786,0.4759,0.4751,0.4741,0.4726,0.4702,0.4698,0.4689,0.4674,0.4673,0.4654,0.4649,0.4636,0.4625,0.4627,0.4607,0.4602,0.4601,0.4615,0.4616,0.4617,0.462,0.4613,0,0,0,0,0,0.4789,0.4778,0.4755,0.4748,0.4741,0.4721,0.4713,0.4702,0.4685,0.4679,0.4663,0.4647,0.4633,0.4624,0.461,0.4599,0.4593,0.4595,0.4596,0.4597,0.4596,0.4588,0.4588,0.4585,0.4585,0.4585,0,0,0.4796,0.478,0.4774,0.4752,0.4739,0.4727,0.4716,0.4704,0.4695,0.4677,0.4663,0.465,0.4631,0.4618,0.4612,0.4608,0.4596,0.4597,0.4598,0.4597,0.4588,0.4588,0.4589,0.4585,0.4585,0.4585,0,0,0.4802,0.4789,0.4781,0.4768,0.4749,0.4735,0.4733,0.4711,0.4702,0.4687,0.4673,0.4661,0.4638,0.4624,0.4614,0.4613,0.4603,0.4609,0.4615,0.4607,0.4607,0.4607,0.4605,0.4605,0.4609,0.4609,0.4609,0,0.4813,0.4795,0.4778,0.4767,0.4757,0.474,0.4731,0.4719,0.4696,0.4689,0.4685,0.4654,0.464,0.4623,0.4622,0.4615,0.4611,0.4612,0.4608,0.4608,0.4608,0.4606,0.4606,0.4609,0.4609,0.4609,0.4609,0,0.4808,0.4796,0.4792,0.477,0.4759,0.4749,0.473,0.4721,0.471,0.4697,0.4681,0.4663,0.4645,0.464,0.463,0.462,0.4619,0.4612,0.4606,0.461,0.4607,0.4607,0.4611,0.461,0.461,0.461,0,0,0.4827,0.4795,0.4793,0.4782,0.4759,0.4748,0.4737,0.4719,0.4711,0.4695,0.4684,0.4664,0.4657,0.4645,0.4633,0.4626,0.4625,0.462,0.4619,0.4621,0.4612,0.4617,0.4616,0.4618,0.4618,0.4617,0.4613,0,0.4829,0.4808,0.4792,0.4776,0.4764,0.4747,0.4737,0.4721,0.4707,0.4694,0.4679,0.4665,0.4658,0.465,0.4643,0.4627,0.4623,0.4627,0.4606,0.4606,0.4611,0.4615,0.4621,0.4617,0.4612,0.4612,0.4612,0,0.4828,0.4813,0.4796,0.4773,0.4767,0.4758,0.4739,0.4727,0.4708,0.4699,0.4685,0.4672,0.4658,0.4653,0.4633,0.4636,0.4626,0.4617,0.4616,0.4614,0.4609,0.4612,0.4616,0.4616,0.4611,0.4611,0.4611,0,0.4842,0.4817,0.4804,0.4795,0.4767,0.4761,0.4749,0.473,0.4719,0.4702,0.4695,0.4677,0.4666,0.4652,0.4634,0.4633,0.4615,0.4609,0.4606,0.4606,0.4602,0.4603,0.4605,0.4598,0.4598,0.4598,0.4598,0,0.4845,0.4836,0.4809,0.4801,0.4789,0.477,0.4758,0.4745,0.4727,0.4715,0.4699,0.4688,0.4665,0.4651,0.4637,0.4621,0.4617,0.4608,0.4604,0.4609,0.461,0.4602,0.4602,0.4597,0.4597,0.4598,0.4598,0,0.4859,0.4841,0.4825,0.4799,0.4793,0.4785,0.4763,0.4754,0.4739,0.4724,0.4719,0.4696,0.4678,0.4659,0.4635,0.4625,0.4609,0.4605,0.4616,0.4614,0.4611,0.4611,0.4608,0.4605,0.4601,0.4601,0.4601,0,0.4862,0.4854,0.4827,0.4818,0.4807,0.4792,0.4781,0.4762,0.4751,0.4727,0.472,0.4701,0.4685,0.4657,0.4638,0.4618,0.4612,0.4612,0.4609,0.4614,0.4611,0.4611,0.461,0.4613,0.4613,0.4613,0.4614,0,0.4868,0.486,0.4845,0.4826,0.4813,0.4798,0.4781,0.4774,0.4751,0.4739,0.4721,0.4708,0.4683,0.4664,0.4642,0.4629,0.4617,0.4615,0.4613,0.4617,0.4624,0.4619,0.4618,0.4615,0.4615,0.4615,0.4614,0.4614,0.4876,0.4867,0.4847,0.4831,0.4816,0.4801,0.479,0.4774,0.4759,0.4737,0.4726,0.4707,0.4686,0.4656,0.4643,0.4627,0.4623,0.4621,0.462,0.462,0.462,0.4627,0.4623,0.4623,0.4623,0.4623,0.4623,0,0.4881,0.4867,0.4852,0.4829,0.4816,0.4806,0.4787,0.4776,0.476,0.4742,0.4726,0.4704,0.4684,0.4663,0.4642,0.4634,0.4628,0.4629,0.4629,0.4626,0.4625,0.4629,0.4634,0.4634,0.4634,0.4634,0.4634,0.4634,0.4882,0.4867,0.4855,0.4832,0.4818,0.48,0.4789,0.4775,0.476,0.4736,0.472,0.4707,0.4687,0.4664,0.4645,0.464,0.4632,0.4635,0.4627,0.4627,0.4626,0.4625,0.4628,0.4634,0.4634,0.4629,0.4629,0.4629]},{"header":{"parameterUnit":"m.s-1","parameterCategory":1,"la1":30.2991,"la2":30.254,"lo1":-89.0895,"lo2":-89.0444,"dy":0.0017,"dx":0.0017,"nx":28,"ny":28,"refTime":"2024-04-24T03:00:00:Z","depth":0,"parameterNumber":3,"parameterNumberName":"V-component_of_WINDS"},"data":[0,0,0,0,0,0,0,0,0,0,0,0,0,0,0,0,0,0,0,0,0,0,0,0,0,0,0,0,0,0,0,0,0,0,0,0,0,0,0,0,0,0,0,0,0,0,0,0,0,0,0,0,0,0,0,0,0,0,2.9708,2.9709,0,2.9732,2.9733,2.9733,2.9692,2.9691,2.9689,2.9688,2.9711,2.9713,2.9715,0,0,0,0,0,0,0,0,0,0,0,0,0,2.9625,2.9627,2.9708,2.9709,2.9709,2.9732,2.9733,2.9733,2.9692,2.9691,2.9689,2.9687,2.9711,2.9713,2.9715,0,0,0,0,0,0,0,0,0,0,0,0,0,2.9656,2.9627,2.9708,2.9692,2.969,2.9732,2.9733,2.9733,2.9693,2.9691,2.9688,2.9687,2.971,2.9713,2.9715,2.9775,0,0,2.9724,2.9725,0,0,0,0,0,0,0,0,2.9654,2.9659,2.9694,2.9693,2.9691,2.9707,2.9712,2.9747,2.9693,2.9692,2.9688,2.9686,2.9711,2.9714,2.9723,2.9776,2.9777,2.9724,2.9726,2.9727,2.9728,0,0,0,0,0,0,0,2.9652,2.9658,2.9718,2.9694,2.9693,2.9682,2.9684,2.9718,2.9713,2.9692,2.9689,2.9692,2.971,2.972,2.9723,2.9777,2.9724,2.9727,2.9729,2.973,2.9875,2.9878,0,0,0,0,0,0,2.9653,2.9657,2.9717,2.9719,2.9668,2.9685,2.9688,2.9704,2.9712,2.9712,2.9694,2.969,2.9717,2.972,2.9724,2.9791,2.9727,2.973,2.9732,2.9873,2.9876,2.9878,0,0,0,0,0,0,2.9651,2.9658,2.9716,2.9687,2.9693,2.9689,2.9708,2.9706,2.9716,2.9714,2.9713,2.9705,2.9715,2.972,2.9761,2.9791,2.9731,2.9734,2.9871,2.9874,2.9877,2.9927,0,0,0,0,0,0,2.9649,2.9658,2.9681,2.9688,2.9695,2.9754,2.971,2.9708,2.9721,2.9716,2.9724,2.9724,2.9714,2.9757,2.9764,2.9794,2.9736,2.9868,2.9872,2.9876,2.9922,2.9931,2.9939,0,0,0,0,0,2.9646,2.9695,2.9683,2.969,2.9724,2.9756,2.976,2.9748,2.9723,2.9746,2.9744,2.9723,2.9787,2.9762,2.977,2.98,2.9866,2.9871,2.9876,2.9919,2.9929,2.9939,0,0,0,0,0,0,2.9692,2.9695,2.9682,2.9735,2.9745,2.9749,2.9777,2.9761,2.9778,2.9773,2.9757,2.9759,2.9803,2.9806,2.9778,2.9856,2.9822,2.9829,2.9852,2.9863,2.9871,2.9868,2.9739,0,0,0,0,0,2.9709,2.9735,2.9736,2.9783,2.9789,2.9782,2.9796,2.9785,2.9796,2.98,2.9802,2.9812,2.9834,2.9849,2.9869,2.9923,2.9923,2.9948,2.9956,2.9963,2.9968,2.9994,3.0004,2.9894,2.9894,2.9894,0,0,2.9743,2.9748,2.9766,2.9792,2.9799,2.9825,2.9786,2.9817,2.9835,2.9804,2.9843,2.9845,2.9855,2.9902,2.9923,2.9906,2.9998,2.9969,2.9975,2.9976,3.0,3.001,3.0019,2.9898,2.9897,2.9896,0,0,2.9818,2.9826,2.9863,2.9871,2.9882,2.9877,2.9886,2.9892,2.9891,2.993,2.9906,2.9928,2.9968,2.9975,2.9984,3.0059,3.0039,3.0067,3.0109,3.0134,3.0142,3.015,3.0174,3.0183,3.0072,3.0072,3.0072,0,2.9859,2.9898,2.9885,2.9915,2.9926,2.99,2.9936,2.9944,2.9962,2.9969,2.995,2.9997,3.0002,3.0049,3.0067,3.0076,3.0084,3.0064,3.0142,3.015,3.0156,3.0179,3.0188,3.0075,3.0075,3.0075,3.0074,0,2.9946,2.9973,3.0002,3.0018,3.0033,3.0067,3.0057,3.0074,3.0062,3.0058,3.0096,3.0102,3.0121,3.0132,3.0122,3.0177,3.0166,3.0145,3.011,3.017,3.0191,3.02,3.0079,3.0078,3.0077,3.0077,0,0,3.0051,3.0057,3.0068,3.0073,3.0083,3.0103,3.0135,3.0154,3.0167,3.018,3.0204,3.0237,3.0217,3.0227,3.0217,3.0239,3.0294,3.0215,3.0215,3.0227,3.0352,3.0366,3.0376,3.0282,3.0284,3.0285,3.035,0,3.0122,3.0177,3.0165,3.0218,3.0241,3.0215,3.0242,3.025,3.0248,3.0266,3.0264,3.0286,3.0259,3.0265,3.0286,3.0283,3.0319,3.0279,3.0303,3.0304,3.0298,3.0388,3.0403,3.0464,3.0359,3.036,3.0361,0,3.0214,3.0228,3.0283,3.0285,3.0295,3.032,3.0334,3.0353,3.0361,3.0357,3.0368,3.0353,3.0382,3.0349,3.0388,3.0361,3.037,3.0371,3.0373,3.0372,3.0334,3.0387,3.0483,3.0492,3.0375,3.0374,3.0373,0,3.028,3.0314,3.035,3.0356,3.0361,3.0378,3.0381,3.0387,3.0398,3.0411,3.0418,3.0435,3.0443,3.0456,3.0445,3.0422,3.0485,3.0452,3.0481,3.0481,3.0494,3.0493,3.059,3.0505,3.0504,3.0504,3.0504,0,3.036,3.0394,3.038,3.0402,3.0438,3.0424,3.046,3.046,3.0465,3.0485,3.0465,3.0485,3.047,3.0488,3.048,3.0512,3.0517,3.0514,3.051,3.0514,3.0514,3.0518,3.0512,3.0507,3.0506,3.0506,3.0505,0,3.044,3.0432,3.047,3.0471,3.0471,3.0498,3.0498,3.0518,3.0514,3.054,3.0545,3.0538,3.0558,3.0549,3.057,3.0565,3.0605,3.0598,3.0602,3.0599,3.0628,3.0624,3.0729,3.0741,3.0651,3.0652,3.0652,0,3.0491,3.0516,3.0519,3.053,3.0534,3.0555,3.0565,3.0552,3.0564,3.0573,3.0591,3.0609,3.0623,3.0656,3.0652,3.0668,3.0659,3.0694,3.0661,3.0662,3.0656,3.0653,3.0654,3.07,3.0701,3.0702,3.0703,0,3.0579,3.0574,3.059,3.0604,3.0617,3.0628,3.0637,3.0648,3.0635,3.0649,3.0669,3.0679,3.07,3.0717,3.073,3.0732,3.0715,3.0714,3.0721,3.0723,3.0723,3.0721,3.0617,3.0711,3.071,3.071,3.0709,3.0709,3.0644,3.0664,3.0668,3.0686,3.0691,3.0699,3.0717,3.0714,3.073,3.0745,3.0737,3.0759,3.0764,3.078,3.0784,3.0801,3.0786,3.0798,3.08,3.0802,3.0804,3.0723,3.0803,3.0803,3.0803,3.0803,3.0803,0,3.0729,3.073,3.0747,3.0759,3.0773,3.0755,3.0764,3.0776,3.0796,3.0802,3.0815,3.0836,3.0853,3.085,3.0864,3.0878,3.087,3.0882,3.088,3.088,3.0818,3.0809,3.0888,3.0888,3.0888,3.0888,3.0888,3.0888,3.0775,3.0806,3.08,3.0833,3.0834,3.0855,3.0861,3.0868,3.0872,3.0897,3.091,3.0908,3.091,3.0924,3.0938,3.0936,3.0941,3.0956,3.0951,3.0893,3.0884,3.0876,3.0867,3.0958,3.0958,3.1011,3.1012,3.1012]}]]